FW8170 Weather Reports


time (UTC)temp
C
wind
direction
speed
KPH
gust
KPH
rain 1hr
cm
rain 24hr
cm
rain mn
cm
humidity
%
barometer
mb
20260906145519 26 304 0.0 3.2 0.00 0.00 0.00 79 1019.0
20260906145014 26 3 3.2 4.8 0.00 0.00 0.00 78 1019.1
20260906144508 26 290 1.6 3.2 0.00 0.00 0.00 79 1019.1
20260906144004 26 63 1.6 4.8 0.00 0.00 0.00 78 1019.0
20260906143459 26 259 0.0 3.2 0.00 0.00 0.00 78 1019.0
20260906142955 26 246 1.6 8.0 0.00 0.00 0.00 78 1018.9
20260906142449 26 198 0.0 1.6 0.00 0.00 0.00 78 1018.8
20260906141944 26 278 0.0 1.6 0.00 0.00 0.00 78 1018.9
20260906141443 26 189 0.0 3.2 0.00 0.00 0.00 79 1018.7
20260906140938 26 272 0.0 1.6 0.00 0.00 0.00 80 1018.8
20260906140433 26 271 0.0 1.6 0.00 0.00 0.00 79 1018.7
20260906135931 26 295 1.6 4.8 0.00 0.00 0.00 79 1018.4
20260906135430 26 275 0.0 4.8 0.00 0.00 0.00 80 1018.8
20260906134926 26 309 0.0 3.2 0.00 0.00 0.00 80 1018.7
20260906134421 26 295 0.0 1.6 0.00 0.00 0.00 80 1018.7
20260906133916 26 261 0.0 4.8 0.00 0.00 0.00 80 1018.9
20260906133411 25 239 0.0 1.6 0.00 0.00 0.00 83 1018.8
20260906132907 25 265 0.0 1.6 0.00 0.00 0.00 82 1018.9
20260906132402 25 285 0.0 0.0 0.00 0.00 0.00 83 1018.8
20260906131857 25 279 1.6 1.6 0.00 0.00 0.00 84 1018.7
20260906131353 25 261 0.0 3.2 0.00 0.00 0.00 85 1019.0
20260906130849 25 282 0.0 1.6 0.00 0.00 0.00 85 1018.8
20260906130348 25 321 0.0 1.6 0.00 0.00 0.00 86 1018.7
20260906125847 25 273 0.0 1.6 0.00 0.00 0.00 86 1018.8
20260906125344 24 303 1.6 1.6 0.00 0.00 0.00 87 1018.8
20260906124839 24 8 3.2 3.2 0.00 0.00 0.00 87 1018.6
20260906124335 24 10 0.0 1.6 0.00 0.00 0.00 87 1018.5
20260906123834 24 265 0.0 3.2 0.00 0.00 0.00 88 1018.6
20260906123329 24 308 0.0 0.0 0.00 0.00 0.00 88 1018.6
20260906122829 24 290 0.0 3.2 0.00 0.00 0.00 88 1018.4
20260906122324 24 287 0.0 0.0 0.00 0.00 0.00 88 1018.4
20260906121821 24 289 0.0 1.6 0.00 0.00 0.00 88 1018.3
20260906121317 24 250 0.0 1.6 0.00 0.00 0.00 88 1018.0
20260906120813 24 289 0.0 0.0 0.00 0.00 0.00 88 1018.2
20260906120308 24 280 0.0 1.6 0.00 0.00 0.00 88 1018.2
20260906115805 24 307 0.0 1.6 0.00 0.00 0.00 88 1018.1
20260906115300 24 294 0.0 0.0 0.00 0.00 0.00 88 1018.0
20260906114759 24 294 0.0 0.0 0.00 0.00 0.00 88 1018.1
20260906114254 24 295 0.0 0.0 0.00 0.00 0.00 87 1018.1
20260906113749 24 286 0.0 0.0 0.00 0.00 0.00 87 1018.2
20260906113248 24 296 0.0 0.0 0.00 0.00 0.00 87 1017.9
20260906112743 24 286 0.0 0.0 0.00 0.00 0.00 87 1018.0
20260906112239 24 280 0.0 0.0 0.00 0.00 0.00 87 1017.9
20260906111739 24 279 0.0 0.0 0.00 0.00 0.00 87 1017.8
20260906111233 25 287 0.0 0.0 0.00 0.00 0.00 87 1017.9
20260906110728 25 338 0.0 1.6 0.00 0.00 0.00 87 1017.7
20260906110224 25 293 0.0 0.0 0.00 0.00 0.00 87 1017.8
20260906105723 25 282 0.0 1.6 0.00 0.00 0.00 86 1017.9
20260906105219 25 320 0.0 0.0 0.00 0.00 0.00 86 1017.6
20260906104719 25 210 0.0 1.6 0.00 0.00 0.00 86 1017.6
20260906104218 25 294 0.0 1.6 0.00 0.00 0.00 86 1017.6
20260906103716 25 28 0.0 1.6 0.00 0.00 0.00 85 1017.5
20260906103211 25 301 1.6 1.6 0.00 0.00 0.00 85 1017.4
20260906102706 25 285 0.0 0.0 0.00 0.00 0.00 85 1017.5
20260906102205 25 286 0.0 0.0 0.00 0.00 0.00 85 1017.4
20260906101700 25 271 0.0 0.0 0.00 0.00 0.00 85 1017.6
20260906101155 25 0 0.0 1.6 0.00 0.00 0.00 85 1017.5
20260906100651 25 300 0.0 1.6 0.00 0.00 0.00 84 1017.3
20260906100151 25 275 0.0 3.2 0.00 0.00 0.00 84 1017.4
20260906095646 25 285 0.0 1.6 0.00 0.00 0.00 84 1017.4
20260906095141 25 298 0.0 0.0 0.00 0.00 0.00 84 1017.5
20260906094640 25 273 0.0 0.0 0.00 0.00 0.00 84 1017.2
20260906094136 25 287 0.0 1.6 0.00 0.00 0.00 84 1017.2
20260906093632 25 275 0.0 0.0 0.00 0.00 0.00 84 1017.2
20260906093132 26 274 0.0 1.6 0.00 0.00 0.00 84 1017.3
20260906092627 26 297 1.6 1.6 0.00 0.00 0.00 85 1017.2
20260906092122 26 299 1.6 4.8 0.00 0.00 0.00 85 1017.0
20260906091618 26 296 0.0 0.0 0.00 0.00 0.00 84 1017.0
20260906091114 26 275 0.0 4.8 0.00 0.00 0.00 84 1016.6
20260906090615 26 300 0.0 3.2 0.00 0.00 0.00 84 1016.9
20260906090114 26 297 0.0 1.6 0.00 0.00 0.00 84 1016.8
20260906085614 26 265 0.0 0.0 0.00 0.00 0.00 84 1016.8
20260906085108 26 273 0.0 0.0 0.00 0.00 0.00 83 1016.8
20260906084603 26 299 0.0 1.6 0.00 0.00 0.00 83 1016.6
20260906084101 26 282 0.0 3.2 0.00 0.00 0.00 83 1016.6
20260906083557 26 77 3.2 4.8 0.00 0.00 0.00 83 1016.6
20260906083057 27 180 3.2 4.8 0.00 0.00 0.00 83 1016.7
20260906082552 27 259 1.6 4.8 0.00 0.00 0.00 83 1016.8
20260906082048 27 285 0.0 1.6 0.00 0.00 0.00 82 1016.7
20260906081544 27 276 0.0 1.6 0.00 0.00 0.00 81 1016.7
20260906081039 27 270 0.0 1.6 0.00 0.00 0.00 81 1016.7
20260906080536 27 334 0.0 1.6 0.00 0.00 0.00 81 1016.8
20260906080031 27 207 1.6 3.2 0.00 0.00 0.00 81 1016.6
20260906075526 27 194 1.6 3.2 0.00 0.00 0.00 82 1016.8
20260906075020 27 185 0.0 0.0 0.00 0.00 0.00 82 1016.6
20260906074515 27 195 0.0 3.2 0.00 0.00 0.00 82 1016.6
20260906074013 27 284 0.0 0.0 0.00 0.00 0.00 83 1016.7
20260906073508 27 243 0.0 1.6 0.00 0.00 0.00 83 1016.7
20260906073005 27 318 0.0 4.8 0.00 0.00 0.00 83 1016.5
20260906072459 27 285 0.0 1.6 0.00 0.00 0.00 83 1016.5
20260906071955 28 284 0.0 1.6 0.00 0.00 0.00 83 1016.7
20260906071451 28 228 0.0 1.6 0.00 0.00 0.00 82 1016.7
20260906070946 28 234 0.0 1.6 0.00 0.00 0.00 82 1016.6
20260906070443 28 283 0.0 1.6 0.00 0.00 0.00 82 1016.5
20260906065938 28 289 1.6 3.2 0.00 0.00 0.00 82 1016.4
20260906065438 28 305 0.0 3.2 0.00 0.00 0.00 81 1016.6
20260906064933 28 284 0.0 1.6 0.00 0.00 0.00 81 1016.7
20260906064429 28 249 1.6 11.3 0.00 0.00 0.00 81 1016.8
20260906063924 28 264 0.0 1.6 0.00 0.00 0.00 80 1016.8
20260906063419 28 301 1.6 8.0 0.00 0.00 0.00 80 1016.8
20260906062914 28 198 1.6 3.2 0.00 0.00 0.00 79 1016.9
20260906062409 29 181 1.6 3.2 0.00 0.00 0.00 79 1016.8
20260906061904 29 243 1.6 1.6 0.00 0.00 0.00 78 1016.7
20260906061400 29 177 1.6 4.8 0.00 0.00 0.00 78 1016.7
20260906060854 29 254 0.0 1.6 0.00 0.00 0.00 77 1016.9
20260906060352 29 200 0.0 3.2 0.00 0.00 0.00 77 1016.9
20260906055848 29 185 1.6 8.0 0.00 0.00 0.00 77 1017.0
20260906055343 29 279 0.0 1.6 0.00 0.00 0.00 77 1016.7
20260906054838 29 301 0.0 1.6 0.00 0.00 0.00 77 1016.8
20260906054333 29 281 0.0 1.6 0.00 0.00 0.00 77 1016.6
20260906053830 29 274 0.0 1.6 0.00 0.00 0.00 77 1016.9
20260906053325 30 341 0.0 0.0 0.00 0.00 0.00 76 1016.7
20260906052820 30 298 0.0 1.6 0.00 0.00 0.00 76 1016.7
20260906052317 30 294 0.0 0.0 0.00 0.00 0.00 76 1016.9
20260906051814 30 347 0.0 1.6 0.00 0.00 0.00 76 1016.8
20260906051313 30 330 0.0 1.6 0.00 0.00 0.00 75 1016.9
20260906050808 30 330 0.0 0.0 0.00 0.00 0.00 75 1016.9
20260906050303 30 271 0.0 0.0 0.00 0.00 0.00 75 1016.8
20260906045802 30 278 0.0 0.0 0.00 0.00 0.00 74 1016.6
20260906045257 30 284 0.0 3.2 0.00 0.00 0.00 74 1016.6
20260906044753 30 303 0.0 0.0 0.00 0.00 0.00 74 1016.5
20260906044247 30 290 0.0 0.0 0.00 0.00 0.00 73 1016.6
20260906043744 30 275 0.0 0.0 0.00 0.00 0.00 73 1016.5
20260906043240 30 297 0.0 0.0 0.00 0.00 0.00 73 1016.6
20260906042739 30 286 0.0 0.0 0.00 0.00 0.00 72 1016.4
20260906042238 30 294 0.0 0.0 0.00 0.00 0.00 72 1016.4
20260906041734 30 292 0.0 1.6 0.00 0.00 0.00 71 1016.4
20260906041229 31 301 0.0 1.6 0.00 0.00 0.00 71 1016.4
20260906040724 31 300 1.6 3.2 0.00 0.00 0.00 71 1016.3
20260906040219 31 344 0.0 1.6 0.00 0.00 0.00 70 1016.3
20260906035714 31 341 0.0 0.0 0.00 0.00 0.00 70 1016.5
20260906035205 31 275 0.0 1.6 0.00 0.00 0.00 69 1016.4
20260906034704 31 268 0.0 1.6 0.00 0.00 0.00 69 1016.3
20260906034159 31 276 0.0 1.6 0.00 0.00 0.00 68 1016.2
20260906033655 31 305 0.0 1.6 0.00 0.00 0.00 68 1016.3
20260906033156 31 283 0.0 0.0 0.00 0.00 0.00 67 1016.3
20260906032652 31 276 0.0 1.6 0.00 0.00 0.00 66 1016.1
20260906032146 31 294 0.0 3.2 0.00 0.00 0.00 66 1016.0
20260906031641 31 300 0.0 1.6 0.00 0.00 0.00 65 1016.0
20260906031137 31 276 0.0 0.0 0.00 0.00 0.00 65 1015.9
20260906030636 31 284 0.0 3.2 0.00 0.00 0.00 64 1016.0
20260906030132 31 155 0.0 1.6 0.00 0.00 0.00 64 1016.2
20260906025631 31 282 0.0 1.6 0.00 0.00 0.00 64 1015.9
20260906025130 31 6 0.0 1.6 0.00 0.00 0.00 64 1015.8
20260906024625 31 283 0.0 1.6 0.00 0.00 0.00 64 1015.8
20260906024125 31 309 0.0 1.6 0.00 0.00 0.00 65 1015.8
20260906023621 31 296 0.0 0.0 0.00 0.00 0.00 64 1015.9
20260906023115 31 315 0.0 0.0 0.00 0.00 0.00 65 1015.5
20260906022610 31 297 0.0 0.0 0.00 0.00 0.00 64 1015.5
20260906022106 31 292 0.0 0.0 0.00 0.00 0.00 64 1015.4
20260906021602 31 306 0.0 0.0 0.00 0.00 0.00 64 1015.5
20260906021100 31 322 0.0 0.0 0.00 0.00 0.00 64 1015.4
20260906020600 31 295 0.0 0.0 0.00 0.00 0.00 63 1015.5
20260906020100 31 296 0.0 0.0 0.00 0.00 0.00 63 1015.2
20260906015554 31 304 0.0 0.0 0.00 0.00 0.00 63 1015.1
20260906015053 31 331 0.0 0.0 0.00 0.00 0.00 63 1015.1
20260906014548 31 279 0.0 0.0 0.00 0.00 0.00 63 1015.1
20260906014044 31 292 0.0 1.6 0.00 0.00 0.00 63 1014.9
20260906013539 32 304 0.0 0.0 0.00 0.00 0.00 62 1014.9
20260906013035 32 302 0.0 0.0 0.00 0.00 0.00 61 1014.8
20260906012530 32 296 0.0 0.0 0.00 0.00 0.00 61 1014.6
20260906012029 32 309 0.0 0.0 0.00 0.00 0.00 61 1014.7
20260906011526 32 292 0.0 0.0 0.00 0.00 0.00 61 1014.6
20260906011025 32 292 0.0 0.0 0.00 0.00 0.00 61 1014.5
20260906010520 32 311 0.0 0.0 0.00 0.00 0.00 60 1014.7
20260906010017 32 328 0.0 0.0 0.00 0.00 0.00 59 1014.7
20260906005516 32 314 0.0 1.6 0.00 0.00 0.00 59 1014.5
20260906005015 33 299 0.0 1.6 0.00 0.00 0.00 58 1014.4
20260906004515 33 280 0.0 0.0 0.00 0.00 0.00 57 1014.2
20260906004010 33 282 0.0 0.0 0.00 0.00 0.00 57 1014.3
20260906003505 33 269 0.0 1.6 0.00 0.00 0.00 56 1014.4
20260906003000 33 278 0.0 0.0 0.00 0.00 0.00 56 1014.5
20260906002455 34 288 0.0 0.0 0.00 0.00 0.00 55 1014.5
20260906001950 34 288 0.0 0.0 0.00 0.00 0.00 54 1014.4
20260906001446 34 264 0.0 0.0 0.00 0.00 0.00 53 1014.6
20260906000940 35 278 0.0 3.2 0.00 0.00 0.00 53 1014.4
20260906000435 35 292 0.0 0.0 0.00 0.00 0.00 52 1014.3
20260905235925 35 285 0.0 3.2 0.00 0.00 0.00 52 1014.3
20260905235424 35 313 0.0 1.6 0.00 0.00 0.00 51 1014.3
20260905234919 35 288 0.0 1.6 0.00 0.00 0.00 51 1014.3
20260905234414 35 300 0.0 1.6 0.00 0.00 0.00 51 1014.6
20260905233910 35 292 0.0 0.0 0.00 0.00 0.00 51 1014.5
20260905233405 35 10 1.6 1.6 0.00 0.00 0.00 50 1014.5
20260905232903 35 339 0.0 0.0 0.00 0.00 0.00 51 1014.5
20260905232400 35 325 1.6 1.6 0.00 0.00 0.00 50 1014.6
20260905231855 35 277 0.0 1.6 0.00 0.00 0.00 50 1014.6
20260905231350 35 292 0.0 0.0 0.00 0.00 0.00 50 1014.8
20260905230847 36 278 0.0 1.6 0.00 0.00 0.00 49 1014.5
20260905230344 36 290 0.0 1.6 0.00 0.00 0.00 49 1014.5
20260905225843 36 278 0.0 4.8 0.00 0.00 0.00 48 1014.7
20260905225339 37 37 0.0 0.0 0.00 0.00 0.00 47 1014.5
20260905224834 37 345 0.0 1.6 0.00 0.00 0.00 46 1014.5
20260905224329 36 348 0.0 1.6 0.00 0.00 0.00 48 1014.5
20260905223824 36 306 0.0 1.6 0.00 0.00 0.00 48 1014.2
20260905223322 36 291 0.0 1.6 0.00 0.00 0.00 48 1014.3
20260905222817 36 303 0.0 3.2 0.00 0.00 0.00 50 1014.5
20260905222315 36 40 0.0 0.0 0.00 0.00 0.00 50 1014.5
20260905221812 36 40 0.0 3.2 0.00 0.00 0.00 50 1014.4
20260905221309 36 285 0.0 1.6 0.00 0.00 0.00 49 1014.3
20260905220804 36 7 0.0 1.6 0.00 0.00 0.00 49 1014.6
20260905220300 36 47 1.6 3.2 0.00 0.00 0.00 48 1014.6
20260905215759 36 46 1.6 3.2 0.00 0.00 0.00 48 1014.6
20260905215255 37 298 0.0 0.0 0.00 0.00 0.00 48 1014.8
20260905214750 37 291 1.6 1.6 0.00 0.00 0.00 47 1014.5
20260905214246 37 264 0.0 0.0 0.00 0.00 0.00 48 1014.4
20260905213741 36 271 0.0 0.0 0.00 0.00 0.00 47 1014.5
20260905213237 36 29 1.6 3.2 0.00 0.00 0.00 47 1014.5
20260905212732 37 273 0.0 4.8 0.00 0.00 0.00 45 1014.6
20260905212232 37 43 0.0 3.2 0.00 0.00 0.00 45 1014.6
20260905211731 36 289 0.0 0.0 0.00 0.00 0.00 45 1014.6
20260905211226 36 9 0.0 1.6 0.00 0.00 0.00 46 1014.8
20260905210723 36 288 0.0 1.6 0.00 0.00 0.00 46 1014.6
20260905210223 36 292 0.0 0.0 0.00 0.00 0.00 46 1014.8
20260905205721 36 290 0.0 0.0 0.00 0.00 0.00 45 1014.7
20260905205217 36 290 0.0 1.6 0.00 0.00 0.00 45 1014.8
20260905204716 36 275 0.0 0.0 0.00 0.00 0.00 46 1014.7
20260905204212 36 236 1.6 1.6 0.00 0.00 0.00 47 1014.9
20260905203706 36 268 1.6 1.6 0.00 0.00 0.00 48 1015.0
20260905203202 36 299 0.0 0.0 0.00 0.00 0.00 47 1014.7
20260905202657 37 285 0.0 1.6 0.00 0.00 0.00 46 1014.9
20260905202152 37 293 0.0 3.2 0.00 0.00 0.00 46 1014.8
20260905201648 37 275 0.0 1.6 0.00 0.00 0.00 46 1014.8
20260905201147 37 303 0.0 3.2 0.00 0.00 0.00 44 1015.0
20260905200643 38 198 0.0 1.6 0.00 0.00 0.00 43 1015.0
20260905200138 37 356 1.6 3.2 0.00 0.00 0.00 43 1015.1
20260905195636 38 278 0.0 1.6 0.00 0.00 0.00 42 1015.0
20260905195131 38 306 0.0 1.6 0.00 0.00 0.00 43 1014.9
20260905194626 38 295 0.0 4.8 0.00 0.00 0.00 41 1015.4
20260905194125 38 335 1.6 3.2 0.00 0.00 0.00 42 1015.4
20260905193621 38 261 0.0 3.2 0.00 0.00 0.00 42 1015.6
20260905193115 38 261 0.0 1.6 0.00 0.00 0.00 42 1015.4
20260905192611 38 286 1.6 3.2 0.00 0.00 0.00 42 1015.6
20260905192108 38 266 0.0 4.8 0.00 0.00 0.00 42 1015.6
20260905191606 39 40 3.2 4.8 0.00 0.00 0.00 41 1015.7
20260905191105 39 14 1.6 3.2 0.00 0.00 0.00 42 1015.9
20260905190603 39 291 0.0 1.6 0.00 0.00 0.00 41 1015.6
20260905185601 39 276 0.0 1.6 0.00 0.00 0.00 41 1015.8
20260905185056 39 325 0.0 4.8 0.00 0.00 0.00 40 1015.7
20260905184551 40 271 1.6 8.0 0.00 0.00 0.00 41 1015.8
20260905184050 40 216 0.0 3.2 0.00 0.00 0.00 41 1016.0
20260905183549 40 296 0.0 3.2 0.00 0.00 0.00 41 1015.9
20260905183045 39 346 3.2 4.8 0.00 0.00 0.00 41 1016.0
20260905182544 40 337 1.6 1.6 0.00 0.00 0.00 42 1016.1
20260905182045 39 20 3.2 4.8 0.00 0.00 0.00 43 1016.1
20260905181545 38 315 0.0 1.6 0.00 0.00 0.00 46 1016.1
20260905181045 38 302 0.0 3.2 0.00 0.00 0.00 44 1016.1
20260905180545 38 57 0.0 0.0 0.00 0.00 0.00 46 1016.3
20260905180040 38 57 0.0 1.6 0.00 0.00 0.00 47 1016.4
20260905175539 37 57 0.0 1.6 0.00 0.00 0.00 48 1016.4
20260905175035 37 57 0.0 1.6 0.00 0.00 0.00 49 1016.3
20260905174530 37 296 3.2 3.2 0.00 0.00 0.00 49 1016.4
20260905174026 36 45 0.0 3.2 0.00 0.00 0.00 49 1016.5
20260905173522 37 299 0.0 0.0 0.00 0.00 0.00 49 1016.5
20260905173018 37 37 0.0 3.2 0.00 0.00 0.00 49 1016.6
20260905172516 37 283 0.0 1.6 0.00 0.00 0.00 49 1016.5
20260905172012 36 294 0.0 4.8 0.00 0.00 0.00 49 1016.6
20260905171508 37 306 0.0 3.2 0.00 0.00 0.00 49 1016.6
20260905171003 36 309 0.0 1.6 0.00 0.00 0.00 49 1016.9
20260905170500 37 28 1.6 3.2 0.00 0.00 0.00 49 1016.9
20260905165954 37 298 1.6 1.6 0.00 0.00 0.00 48 1016.9
20260905165449 37 41 0.0 0.0 0.00 0.00 0.00 49 1017.0
20260905164944 36 272 0.0 3.2 0.00 0.00 0.00 49 1016.9
20260905164438 36 321 0.0 3.2 0.00 0.00 0.00 52 1017.2
20260905163933 36 324 1.6 3.2 0.00 0.00 0.00 52 1017.1
20260905163430 35 313 0.0 1.6 0.00 0.00 0.00 54 1017.3
20260905162925 35 298 0.0 3.2 0.00 0.00 0.00 55 1017.2
20260905162420 35 273 0.0 1.6 0.00 0.00 0.00 55 1017.2
20260905161915 35 341 0.0 0.0 0.00 0.00 0.00 55 1017.2
20260905161414 35 293 0.0 3.2 0.00 0.00 0.00 55 1017.3
20260905160912 35 269 0.0 3.2 0.00 0.00 0.00 56 1017.4
20260905160406 34 252 0.0 1.6 0.00 0.00 0.00 57 1017.3
20260905155901 34 287 0.0 1.6 0.00 0.00 0.00 58 1017.3
20260905155401 33 32 4.8 8.0 0.00 0.00 0.00 58 1017.1
20260905154859 33 283 0.0 1.6 0.00 0.00 0.00 59 1017.5
20260905154355 33 302 0.0 1.6 0.00 0.00 0.00 59 1017.4
20260905153850 33 320 0.0 4.8 0.00 0.00 0.00 60 1017.5
20260905153347 33 263 0.0 1.6 0.00 0.00 0.00 62 1017.4
20260905152846 33 34 0.0 1.6 0.00 0.00 0.00 63 1017.3
20260905152346 33 7 3.2 3.2 0.00 0.00 0.00 62 1017.3
20260905151841 33 268 0.0 0.0 0.00 0.00 0.00 64 1017.5
20260905151337 32 246 0.0 1.6 0.00 0.00 0.00 64 1017.4
20260905150837 32 26 1.6 3.2 0.00 0.00 0.00 65 1017.6
20260905150331 32 304 0.0 1.6 0.00 0.00 0.00 66 1017.4
20260905145829 32 359 1.6 1.6 0.00 0.00 0.00 66 1017.3